[[{"header":{"parameterUnit":"m.s-1","parameterCategory":1,"la1":30.2991,"la2":30.254,"lo1":-89.0895,"lo2":-89.0444,"dy":0.0017,"dx":0.0017,"nx":28,"ny":28,"refTime":"2024-12-24T09:00:00:Z","depth":0,"parameterNumber":2,"parameterNumberName":"U-component_of_WINDS"},"data":[0,0,0,0,0,0,0,0,0,0,0,0,0,0,0,0,0,0,0,0,0,0,0,0,0,0,0,0,0,0,0,0,0,0,0,0,0,0,0,0,0,0,0,0,0,0,0,0,0,0,0,0,0,0,0,0,0,0,-4.4128,-4.4129,0,-4.4189,-4.419,-4.4191,-4.403,-4.4024,-4.4019,-4.4015,-4.408,-4.4086,-4.4092,0,0,0,0,0,0,0,0,0,0,0,0,0,-4.3876,-4.3881,-4.4128,-4.4129,-4.413,-4.4189,-4.419,-4.4191,-4.403,-4.4024,-4.4018,-4.4012,-4.4078,-4.4085,-4.4093,0,0,0,0,0,0,0,0,0,0,0,0,0,-4.3966,-4.3883,-4.4128,-4.4057,-4.4051,-4.4189,-4.419,-4.4191,-4.4032,-4.4024,-4.4017,-4.401,-4.4075,-4.4084,-4.4094,-4.4304,0,0,-4.4123,-4.4128,0,0,0,0,0,0,0,0,-4.3961,-4.3976,-4.4067,-4.4062,-4.4056,-4.4094,-4.4125,-4.4229,-4.4034,-4.4039,-4.4015,-4.4006,-4.4091,-4.4099,-4.4127,-4.4308,-4.431,-4.4124,-4.413,-4.4134,-4.4137,0,0,0,0,0,0,0,-4.3955,-4.3972,-4.4152,-4.4068,-4.4062,-4.4023,-4.4027,-4.4144,-4.4107,-4.4038,-4.4027,-4.4036,-4.4086,-4.4118,-4.4127,-4.4311,-4.4124,-4.4133,-4.4138,-4.4142,-4.4669,-4.4676,0,0,0,0,0,0,-4.3958,-4.3968,-4.415,-4.4154,-4.3989,-4.4033,-4.4038,-4.4089,-4.4105,-4.41,-4.4042,-4.4028,-4.4105,-4.4116,-4.4129,-4.4376,-4.4134,-4.4143,-4.4149,-4.466,-4.467,-4.4679,0,0,0,0,0,0,-4.3953,-4.3976,-4.4148,-4.4058,-4.4077,-4.4046,-4.4104,-4.4095,-4.4126,-4.4108,-4.4101,-4.4081,-4.41,-4.4115,-4.4262,-4.4376,-4.4148,-4.4156,-4.4651,-4.4663,-4.4675,-4.4874,0,0,0,0,0,0,-4.3946,-4.3975,-4.4054,-4.4061,-4.4082,-4.428,-4.4111,-4.4101,-4.4142,-4.4125,-4.4142,-4.4138,-4.4095,-4.4248,-4.4272,-4.4386,-4.4164,-4.464,-4.4656,-4.4671,-4.4857,-4.4892,-4.4921,0,0,0,0,0,-4.3938,-4.4108,-4.4059,-4.4082,-4.418,-4.4287,-4.4299,-4.4245,-4.4152,-4.4232,-4.4221,-4.4138,-4.436,-4.4265,-4.4289,-4.4408,-4.4633,-4.4652,-4.467,-4.4843,-4.4885,-4.492,0,0,0,0,0,0,-4.4116,-4.4107,-4.4053,-4.423,-4.426,-4.4259,-4.4358,-4.4291,-4.4349,-4.433,-4.4261,-4.4267,-4.4427,-4.4432,-4.4326,-4.4613,-4.4481,-4.4505,-4.4604,-4.4644,-4.4675,-4.4671,-4.4172,0,0,0,0,0,-4.4175,-4.4262,-4.425,-4.4408,-4.4426,-4.439,-4.4434,-4.439,-4.4419,-4.4431,-4.443,-4.4463,-4.4539,-4.4592,-4.4662,-4.4857,-4.4859,-4.4951,-4.4983,-4.5009,-4.5031,-4.5136,-4.5177,-4.474,-4.474,-4.4739,0,0,-4.43,-4.4306,-4.4365,-4.4444,-4.4462,-4.4554,-4.4402,-4.4505,-4.4573,-4.4447,-4.4585,-4.4587,-4.4618,-4.479,-4.4866,-4.4799,-4.5152,-4.5033,-4.5054,-4.5062,-4.5159,-4.52,-4.5237,-4.4752,-4.475,-4.4748,0,0,-4.4573,-4.4587,-4.4719,-4.4741,-4.477,-4.4745,-4.4778,-4.4788,-4.4783,-4.4921,-4.4828,-4.4909,-4.5043,-4.5069,-4.51,-4.5385,-4.5311,-4.541,-4.5577,-4.568,-4.5714,-4.5744,-4.5847,-4.5884,-4.5432,-4.5432,-4.5432,0,-4.4724,-4.4858,-4.4796,-4.4906,-4.4944,-4.4834,-4.4969,-4.4993,-4.5044,-4.5074,-4.4998,-4.5164,-4.5178,-4.5355,-4.5424,-4.5453,-4.5488,-4.5407,-4.5714,-4.5744,-4.5771,-4.5868,-4.5906,-4.5444,-4.5443,-4.5441,-4.544,0,-4.5043,-4.5138,-4.5241,-4.5293,-4.5343,-4.5465,-4.5422,-4.548,-4.5432,-4.5416,-4.5558,-4.557,-4.5641,-4.568,-4.5634,-4.5851,-4.5809,-4.5725,-4.5591,-4.5826,-4.5915,-4.5952,-4.5461,-4.5457,-4.5453,-4.545,0,0,-4.543,-4.5446,-4.5485,-4.5508,-4.5533,-4.5605,-4.5723,-4.5791,-4.5842,-4.5882,-4.5979,-4.6096,-4.6019,-4.6054,-4.601,-4.6101,-4.6327,-4.6005,-4.6005,-4.6065,-4.6568,-4.6631,-4.6674,-4.6278,-4.6284,-4.629,-4.6565,0,-4.57,-4.59,-4.5848,-4.6049,-4.6136,-4.6033,-4.6135,-4.6162,-4.6151,-4.6224,-4.621,-4.6294,-4.6186,-4.6206,-4.6291,-4.6281,-4.6427,-4.6261,-4.6368,-4.6373,-4.6364,-4.6721,-4.6788,-4.7047,-4.66,-4.6606,-4.661,0,-4.6041,-4.6094,-4.6303,-4.6314,-4.6348,-4.6441,-4.65,-4.6571,-4.66,-4.6585,-4.6626,-4.6564,-4.6681,-4.6547,-4.6708,-4.6596,-4.6637,-4.6639,-4.6648,-4.6656,-4.6506,-4.6739,-4.7128,-4.7168,-4.6664,-4.666,-4.6656,0,-4.6303,-4.6426,-4.6566,-4.6589,-4.6606,-4.6674,-4.6684,-4.6705,-4.675,-4.6802,-4.6831,-4.6897,-4.6933,-4.6986,-4.6944,-4.6849,-4.7112,-4.6973,-4.7104,-4.7105,-4.7164,-4.7161,-4.7565,-4.7191,-4.719,-4.7189,-4.7189,0,-4.661,-4.6742,-4.6684,-4.6771,-4.6916,-4.6856,-4.7002,-4.7,-4.7021,-4.7106,-4.7021,-4.7104,-4.7043,-4.7121,-4.7089,-4.7228,-4.7245,-4.7237,-4.7227,-4.7245,-4.7246,-4.7271,-4.7252,-4.72,-4.7197,-4.7195,-4.7194,0,-4.6926,-4.6893,-4.704,-4.7044,-4.7048,-4.7155,-4.7159,-4.724,-4.7222,-4.7331,-4.7353,-4.7326,-4.7413,-4.7377,-4.7469,-4.7447,-4.7625,-4.7591,-4.7615,-4.7607,-4.7739,-4.7728,-4.8174,-4.823,-4.782,-4.7824,-4.7827,0,-4.7125,-4.7223,-4.7238,-4.7289,-4.7305,-4.7388,-4.7433,-4.7379,-4.743,-4.7471,-4.7548,-4.7627,-4.7687,-4.7831,-4.782,-4.789,-4.7858,-4.8009,-4.7868,-4.7883,-4.786,-4.7855,-4.7865,-4.8038,-4.8043,-4.8047,-4.805,0,-4.748,-4.7459,-4.7527,-4.759,-4.7647,-4.7694,-4.7734,-4.7781,-4.7728,-4.779,-4.7877,-4.7924,-4.8018,-4.8098,-4.8161,-4.8172,-4.8104,-4.8094,-4.8128,-4.8147,-4.8157,-4.8154,-4.7693,-4.8084,-4.8081,-4.8078,-4.8076,-4.8075,-4.7743,-4.7827,-4.785,-4.7929,-4.7954,-4.7993,-4.807,-4.8062,-4.8134,-4.8205,-4.8169,-4.8271,-4.8299,-4.8375,-4.8396,-4.8476,-4.8416,-4.8466,-4.8478,-4.8491,-4.8509,-4.8145,-4.8487,-4.8486,-4.8485,-4.8484,-4.8483,0,-4.8094,-4.8104,-4.8178,-4.8236,-4.8299,-4.8228,-4.8269,-4.8327,-4.8418,-4.8449,-4.851,-4.8612,-4.8689,-4.8685,-4.8757,-4.8822,-4.8792,-4.8842,-4.8837,-4.8841,-4.8557,-4.8521,-4.8865,-4.8865,-4.8865,-4.8865,-4.8865,-4.8865,-4.8284,-4.8422,-4.8404,-4.8554,-4.8563,-4.8662,-4.8691,-4.8728,-4.8752,-4.8869,-4.8933,-4.893,-4.8947,-4.902,-4.9088,-4.9085,-4.9115,-4.9178,-4.9164,-4.8899,-4.8861,-4.8825,-4.879,-4.9185,-4.9186,-4.944,-4.9442,-4.9444]},{"header":{"parameterUnit":"m.s-1","parameterCategory":1,"la1":30.2991,"la2":30.254,"lo1":-89.0895,"lo2":-89.0444,"dy":0.0017,"dx":0.0017,"nx":28,"ny":28,"refTime":"2024-12-24T09:00:00:Z","depth":0,"parameterNumber":3,"parameterNumberName":"V-component_of_WINDS"},"data":[0,0,0,0,0,0,0,0,0,0,0,0,0,0,0,0,0,0,0,0,0,0,0,0,0,0,0,0,0,0,0,0,0,0,0,0,0,0,0,0,0,0,0,0,0,0,0,0,0,0,0,0,0,0,0,0,0,0,1.0487,1.0487,0,1.0484,1.0484,1.0484,1.0504,1.0505,1.0505,1.0506,1.0498,1.0498,1.0497,0,0,0,0,0,0,0,0,0,0,0,0,0,1.0507,1.0507,1.0487,1.0487,1.0487,1.0484,1.0484,1.0484,1.0504,1.0505,1.0505,1.0506,1.0499,1.0498,1.0497,0,0,0,0,0,0,0,0,0,0,0,0,0,1.05,1.0507,1.0487,1.0497,1.0497,1.0484,1.0484,1.0484,1.0504,1.0505,1.0506,1.0506,1.0499,1.0498,1.0497,1.0472,0,0,1.0493,1.0493,0,0,0,0,0,0,0,0,1.0501,1.05,1.0495,1.0496,1.0497,1.0495,1.0488,1.048,1.0504,1.0501,1.0506,1.0507,1.0496,1.0495,1.0493,1.0472,1.0471,1.0493,1.0492,1.0492,1.0492,0,0,0,0,0,0,0,1.0501,1.05,1.0485,1.0495,1.0496,1.05,1.05,1.0487,1.0494,1.0502,1.0503,1.0503,1.0497,1.0494,1.0493,1.0471,1.0493,1.0492,1.0491,1.0491,1.0431,1.043,0,0,0,0,0,0,1.0501,1.05,1.0486,1.0485,1.0501,1.0499,1.0499,1.0495,1.0494,1.0495,1.0502,1.0504,1.0495,1.0494,1.0493,1.0464,1.0492,1.0491,1.049,1.0432,1.0431,1.043,0,0,0,0,0,0,1.0501,1.0499,1.0486,1.0493,1.0492,1.0498,1.0493,1.0494,1.0491,1.0494,1.0495,1.0498,1.0496,1.0494,1.0478,1.0464,1.049,1.0489,1.0433,1.0431,1.043,1.0406,0,0,0,0,0,0,1.0502,1.0499,1.0491,1.0493,1.0491,1.0471,1.0492,1.0494,1.049,1.0492,1.0491,1.0491,1.0497,1.0479,1.0476,1.0463,1.0488,1.0434,1.0432,1.043,1.0408,1.0404,1.0401,0,0,0,0,0,1.0502,1.0483,1.049,1.0488,1.0481,1.047,1.0469,1.0477,1.0489,1.0479,1.0482,1.0491,1.0466,1.0477,1.0474,1.046,1.0435,1.0433,1.0431,1.041,1.0405,1.0401,0,0,0,0,0,0,1.0476,1.0483,1.0491,1.0472,1.0471,1.0474,1.0462,1.0472,1.0466,1.0468,1.0477,1.0476,1.0458,1.0458,1.047,1.0437,1.0452,1.045,1.0437,1.0433,1.0429,1.0429,1.0488,0,0,0,0,0,1.0469,1.0461,1.0467,1.0449,1.0449,1.0456,1.0452,1.0458,1.0457,1.0456,1.0457,1.0454,1.0445,1.0439,1.0432,1.0409,1.0409,1.0398,1.0394,1.0391,1.0388,1.0376,1.0371,1.0423,1.0423,1.0423,0,0,1.0452,1.0455,1.0449,1.0444,1.0444,1.0435,1.0455,1.0444,1.0437,1.0453,1.0438,1.0439,1.0436,1.0417,1.0408,1.0416,1.0374,1.0388,1.0386,1.0384,1.0374,1.0369,1.0364,1.0421,1.0422,1.0422,0,0,1.0417,1.0419,1.0404,1.0405,1.0405,1.041,1.0407,1.041,1.0411,1.0397,1.0409,1.0401,1.0386,1.0384,1.0381,1.0348,1.0356,1.0345,1.0325,1.0313,1.0309,1.0305,1.0293,1.0289,1.0342,1.0342,1.0342,0,1.0395,1.0383,1.0395,1.0384,1.0382,1.0399,1.0384,1.0383,1.038,1.0378,1.0387,1.0371,1.037,1.035,1.0343,1.034,1.0336,1.0344,1.0309,1.0306,1.0302,1.0291,1.0286,1.0341,1.0341,1.0341,1.0341,0,1.0357,1.0348,1.0337,1.0336,1.0332,1.0319,1.0329,1.0324,1.0332,1.0336,1.0321,1.0321,1.0315,1.0311,1.0317,1.0292,1.0297,1.0308,1.0323,1.0296,1.0285,1.0281,1.0339,1.0339,1.034,1.034,0,0,1.0302,1.031,1.0305,1.0306,1.0309,1.0302,1.0291,1.0286,1.0281,1.0279,1.0269,1.0258,1.0268,1.0265,1.0272,1.0262,1.0235,1.0274,1.0274,1.0266,1.0208,1.0198,1.0193,1.0242,1.0241,1.0241,1.0207,0,1.0267,1.0248,1.026,1.0239,1.0231,1.0249,1.0239,1.0239,1.0244,1.0237,1.0241,1.0233,1.0248,1.0246,1.0237,1.024,1.0224,1.0243,1.0231,1.0231,1.023,1.0187,1.0177,1.0146,1.0203,1.0203,1.0202,0,1.0223,1.0221,1.02,1.0206,1.0204,1.0194,1.0192,1.0186,1.0187,1.0191,1.0189,1.0198,1.0187,1.0204,1.0188,1.0201,1.0197,1.0198,1.0197,1.0195,1.0213,1.0182,1.0136,1.013,1.0196,1.0196,1.0197,0,1.0184,1.0177,1.0163,1.0163,1.017,1.0163,1.0166,1.0168,1.0165,1.0163,1.0161,1.0156,1.0153,1.015,1.0158,1.017,1.014,1.0158,1.0142,1.0142,1.0133,1.0133,1.0084,1.0134,1.0134,1.0134,1.0134,0,1.0142,1.0128,1.0146,1.0138,1.0123,1.0137,1.0122,1.0126,1.0128,1.012,1.0135,1.0127,1.014,1.0133,1.014,1.0125,1.0124,1.0126,1.0127,1.0123,1.0123,1.0119,1.0121,1.0132,1.0133,1.0133,1.0133,0,1.0095,1.0107,1.0093,1.0102,1.0104,1.0093,1.01,1.0092,1.0099,1.0089,1.0087,1.0097,1.009,1.0099,1.0092,1.0097,1.0076,1.0082,1.0076,1.0077,1.006,1.0061,1.0005,0.9998,1.0054,1.0054,1.0053,0,1.0067,1.0057,1.0066,1.0062,1.0065,1.0059,1.0057,1.0071,1.0067,1.007,1.0061,1.0056,1.0053,1.0041,1.0046,1.0042,1.0046,1.0027,1.0045,1.0042,1.0045,1.0044,1.0043,1.0022,1.0022,1.0021,1.0021,0,1.0015,1.0022,1.0019,1.0019,1.0016,1.0016,1.0016,1.0013,1.0028,1.0023,1.0018,1.0015,1.001,1.0004,1.0002,1.0003,1.0014,1.0016,1.0012,1.0006,1.0003,1.0004,1.0064,1.0016,1.0017,1.0017,1.0017,1.0017,0.9976,0.9968,0.9974,0.997,0.9973,0.9974,0.9967,0.9975,0.997,0.9968,0.9977,0.9969,0.9972,0.997,0.997,0.9964,0.9972,0.9966,0.9964,0.9962,0.9959,1.0006,0.9964,0.9964,0.9964,0.9964,0.9964,0,0.9924,0.9929,0.9926,0.9928,0.9925,0.9939,0.9941,0.9937,0.9931,0.9934,0.9931,0.9924,0.992,0.9927,0.9923,0.9916,0.9921,0.9915,0.9914,0.9914,0.9953,0.9956,0.9911,0.9911,0.9911,0.9911,0.9911,0.9911,0.9897,0.9885,0.9893,0.9882,0.9887,0.9881,0.9881,0.9882,0.9884,0.9877,0.9874,0.988,0.9884,0.9881,0.9877,0.988,0.9877,0.9868,0.9872,0.9907,0.9912,0.9917,0.992,0.9868,0.9868,0.9834,0.9834,0.9833]}]]